Aeroporto :
LOGIN :

Iscrizione | Disclaimer

   EN    FR    IT 

 










Sommario :    VFR   VFR Marginale   IFR   IFR Intensivo   IFR Molto Intensivo
Visibilità : 
Base nubi : 
>= 8 km
>= 3000ft
5 / 8 km
1000 / 3000 ft
1500m / 5 km
500 / 1000 ft
800 / 1500m
200 / 500 ft
< 800m
< 200 ft
Simboli :   Temporali  Nebbia  Neve Forte  Precipitazioni Forti  Vento > 20 kt
SIGMETs :   Varie  Temporali  Ghiacco  Turbolenza  Onda orograficha  Ceneri Vulcaniche






- Altitudine del aeroporto : 322 ft


LHSN - Szolnok

ULTIMO METAR :
  • 210145Z 04004KT CAVOK 11/08 Q1019 NOSIG RMK BLU

METARs OBSOLETI :
  • 210115Z 00000KT CAVOK 12/08 Q1019 NOSIG RMK BLU
  • 210045Z 00000KT CAVOK 12/08 Q1019 NOSIG RMK BLU
  • 210015Z 16002KT CAVOK 13/09 Q1019 NOSIG RMK BLU
  • 202345Z 07002KT CAVOK 12/08 Q1019 NOSIG RMK BLU
  • 202315Z 00000KT CAVOK 12/08 Q1019 NOSIG RMK BLU

TAF TAF LHSN
Valido dal 20 a 21 ore il 21 a 06 ore UTC


202015Z 2021/2106 VRB03KT CAVOK



MetMap, La meteo Aeronautica in un colpo d'occhio ! - Copyright ORBIFLY Dicembre 2007 - Disclaimer

ORBIFLY MET'MAP TEAM :

Programmazione e sviluppo : Alexandra Zaïnal
Concezione : Baudouin d'Aumeries
Aiuto per la programmazione : Marc-Olivier Méhu
Supporto tecnico e logistico : Manuel Goepfert
Aiuto per la traduzione : Arnaldo La Scala

Contatto : metmap@orbifly.com




FONTI E CREDITI :

   NOAA